Regional Weather Roundup
Issued by NWS

Home | Current Version | Previous Version | Graphics & Text | Print | Product List | Glossary On
Versions: 1 2 3 4 5 6 7 8 9 10 11 12 13 14 15 16 17 18 19 20 21 22 23 24 25 26 27 28 29 30 31 32 33 34 35 36 37 38 39 40 41 42 43 44 45 46 47 48 49 50
000
ASUS45 KTFX 011219
RWRMT
MONTANA HOURLY WEATHER ROUNDUP
NATIONAL WEATHER SERVICE GREAT FALLS MT
519 AM MST SUN FEB 1 2015

NOTE: "FAIR" INDICATES FEW OR NO CLOUDS BELOW 12000 FEET WITH NO
SIGNIFICANT WEATHER AND/OR OBSTRUCTIONS TO VISIBILITY.

* THESE STATIONS ARE NOT UNDER NWS QUALITY CONTROL. THEY DO NOT
   REPORT WEATHER SUCH AS PRECIPITATION OR FOG.

MTZ001>007-043-011300-
WEST OF THE DIVIDE
CITY           SKY/WX    TMP DP  RH WIND       PRES   REMARKS
KALISPELL      CLEAR     18  10  71 NE3       30.24S
MISSOULA       PTCLDY    27  18  69 SE9       30.24S WCI  18
BUTTE          CLEAR     10   9  96 CALM      30.17S
MULLAN PASS    CLOUDY    21  18  88 S9        30.08F WCI  11
* ANACONDA     PTCLDY    16  10  77 SW5        N/A   WCI   8
* ESSEX        N/A       10   5  80 SE2        N/A
* EUREKA APT   PTCLDY    25  21  85 CALM      30.25F
* HAMILTON APT PTCLDY    25  19  78 S6        30.21F WCI  18
* LIBBY APT    CLOUDY    27  25  92 CALM      30.24F
* LINCOLN      N/A        6   1  80 N1         N/A
* LOOKOUT PASS N/A       23  22  96 S3G10      N/A
* POLSON       N/A       20  18  92 N/A        N/A
* RONAN APT    PTCLDY    25  25 100 N/A        N/A
* SEELEY LAKE  N/A       19  11  71 W1         N/A
* THOMP F APT  CLOUDY    13   9  84 N4         N/A
* YAAK HILL    N/A       28  23  81 N/A        N/A
$$

MTZ008-052>055-011300-
SOUTHWEST MONTANA
CITY           SKY/WX    TMP DP  RH WIND       PRES   REMARKS
BOZEMAN        MOCLDY    16  12  84 CALM      30.26R
DILLON         PTCLDY    12   9  88 CALM      30.20R
* W YELLOWSTON PTCLDY    14  11  88 N/A        N/A
* THREE FORKS  CLEAR     16  16 100 N/A        N/A
* BOULDER HILL N/A       12   7  80 S9         N/A
* MONIDA PASS  N/A        5   2  87 N/A        N/A
* RAYNOLDS PAS N/A        9 -29  15 N1         N/A
* WHITEHALL    N/A       14   8  77 NW4        N/A
* WISE RIVER   N/A        9   5  84 W3         N/A
$$

MTZ009>010-012-014-046-048-049-054-011300-
EAST SLOPES AND CENTRAL MONTANA
CITY           SKY/WX    TMP DP  RH WIND       PRES   REMARKS
CUT BANK       CLEAR     -2  -6  83 S3        30.23F
GREAT FALLS    MOCLDY    -2  -6  83 SW6       30.26F WCI -14
HELENA         MOCLDY    16  10  77 CALM      30.28F
MALMSTROM AFB  MOCLDY    -6  -9  87 S5        30.30F WCI -18
* CONRAD       CLEAR     -4 -11  71 CALM       N/A
* DEARBORN     N/A        3   0  87 S1         N/A
* EAST GLACIER N/A        8   5  87 NW4        N/A
* MONARCH      N/A        3  -1  83 SE4        N/A
* PENDROY      N/A        5   2  87 SW10       N/A   WCI -10
* ROGERS PASS  N/A       10   5  80 W4         N/A
* SWEET GRASS  N/A       -2  -6  83 NW4        N/A
* WHITE SULPH  N/A        7   1  76 E4         N/A
$$

MTZ011-013-016-021-035-040-045-047-050-051-011300-
NORTH CENTRAL MONTANA
CITY           SKY/WX    TMP DP  RH WIND       PRES   REMARKS
HAVRE          PTCLDY   -11 -15  82 CALM      30.40F
LEWISTOWN      PTCLDY     3   0  87 E6        30.27F WCI  -8
* N BAR RANCH  CLEAR      1  -4  79 N3        30.26S
* CHINOOK      PTCLDY   -15 -18  86 CALM      30.44F
* CHESTER      N/A      -10 -16  74 NE1        N/A
* DENTON       N/A        1  -2  87 SE7        N/A   WCI -12
* GEYSER       N/A       -2  -5  87 SW4        N/A
* JUDITH GAP   N/A       -1  -2  95 W2         N/A
* LOMA         N/A       -8 -12  82 E3         N/A
$$

MTZ017>020-022>027-061-062-011300-
NORTHEAST MONTANA
CITY           SKY/WX    TMP DP  RH WIND       PRES   REMARKS
GLASGOW        PTCLDY    -2  -6  83 SE3       30.46R
GLENDIVE       PTCLDY    -9 -11  91 NW3       30.44R
JORDAN         PTCLDY    -8  -9  95 CALM      30.42R
SIDNEY         CLEAR    -11 -11 100 W7        30.53R WCI -26
WOLF POINT     CLEAR     -6 -11  78 CALM      30.51R
* BEAVER HILL  N/A       -6 -10  82 NW4        N/A
* CIRCLE       N/A       -3  -7  83 N/A        N/A
* LINDSAY DVD  N/A      -10 -14  82 NW6        N/A   WCI -24
* NAVAJO       N/A      -11 -16  78 W3         N/A
* PLENTYWOOD A CLEAR     -8 -11  86 CALM      30.46S
* POPLAR APT   PTCLDY    -6  -9  87 N/A       30.51R
* SACO         N/A      -12 -16  82 S1         N/A
* SCOBEY APT   CLEAR    -11 -20  63 N/A        N/A
$$

MTZ028>042-056>058-011300-
SOUTHCENTRAL AND SOUTHEAST MONTANA
CITY           SKY/WX    TMP DP  RH WIND       PRES   REMARKS
BAKER          PTCLDY    -4  -8  83 NW7       30.37R WCI -18
BILLINGS       PTCLDY     7   3  83 E3        30.34S
LIVINGSTON     MOCLDY    12   9  88 NE5       30.22S WCI   4
MILES CITY     LGT SNOW   1  -2  87 CALM      30.43R
* BIG TIMBER A CLEAR     10   7  88 E7        30.25S WCI  -1
* FORSYTH APT  PTCLDY     3  -2  79 CALM      30.42S
* LAUREL APT   CLEAR      5  -2  72 N/A        N/A
* ROUNDUP APT  CLEAR      7   0  73 N/A        N/A
* ALZADA       N/A       -4  -8  83 W4         N/A
* HYSHAM       N/A        1  -3  83 W2         N/A
* LAME DEER    N/A       -1  -5  83 NW4        N/A
* REED POINT   N/A       11   8  88 E7         N/A
$$

REGIONAL REPORTS...DAKOTAS
CITY           SKY/WX    TMP DP  RH WIND       PRES   REMARKS
WILLISTON      PTCLDY   -15 -20  77 NW6       30.50R WCI -30
DICKINSON      CLOUDY    -4  -9  79 N7        30.37S WCI -18
BEACH          MOCLDY    -8  -9  95 W5        30.40R WCI -20
CROSBY         CLEAR     -9 -15  74 W6        30.51R WCI -23
TIOGA          CLEAR    -17 -20  86 W3        30.48R
WATFORD CITY   CLEAR     -8 -13  78 CALM      30.46R
BISMARCK       CLOUDY    -6 -15  64 N8        30.49R WCI -21
GRAND FORKS    PTCLDY   -11 -18  70 N17       30.57S WCI -35
FARGO          CLOUDY    -6 -15  64 N21       30.47S WCI -30
BUFFALO SD     MOCLDY     0  -6  75 N10       30.26R WCI -16
RAPID CITY     CLOUDY     5   1  83 N20       30.26R WCI -15
$$

REGIONAL REPORTS...WYOMING/IDAHO/WASHINGTON
CITY           SKY/WX    TMP DP  RH WIND       PRES   REMARKS
GILLETTE       FOG        5   1  83 N14       30.23R WCI -12
SHERIDAN       CLOUDY    10   3  73 NW10      30.30S WCI  -4
CODY           CLOUDY    10   9  96 NE7       30.20R WCI  -1
YELLOWSTONE LA PTCLDY     0  -4  83 CALM      30.13R
SALMON         CLOUDY    21  18  88 CALM      30.26S
MULLAN PASS    CLOUDY    21  18  88 S9        30.08S WCI  11
SAND POINT     CLOUDY    32  28  85 CALM      30.24F
SPOKANE        CLOUDY    30  28  92 CALM      30.22F
$$

REGIONAL REPORTS...ALBERTA
CITY           SKY/WX    TMP DP  RH WIND       PRES   REMARKS
CALGARY        MOCLDY     3  -2  79 SW3       30.12F
LETHBRIDGE     CLOUDY    -8 -11  86 SW6       30.22F WCI -21
MEDICINE HAT   CLEAR     -6  -9  87 SE6       30.34F WCI -19
EDMONTON       PTCLDY    -8 -13  78 S6        30.21F WCI -21
WATERTON GATE  N/A       18 N/A N/A SW9        N/A   WCI   7
CARDSTON       N/A        0  -2  91 S5         N/A   WCI -11
MILK RIVER     N/A       -4  -6  91 S6         N/A   WCI -17
$$

REGIONAL REPORTS...SASKATCHEWAN
CITY           SKY/WX    TMP DP  RH WIND       PRES   REMARKS
SWIFT CURRENT  CLEAR     -4  -8  83 SW10      30.33F WCI -21
REGINA         FAIR     -13 -18  78 SW3       30.48F
VAL MARIE      N/A      -20 -26  73 SW2        N/A
ASSINIBOIA     N/A       -8 -13  78 S5         N/A   WCI -20
CORONACH       N/A      -15 -18  86 W3         N/A

$$



USA.gov is the U.S. government's official web portal to all federal, state and local government web resources and services.